Location: Cutler
(25.6150°N, 80.3110°W)
Time: 13:05:11
(UTC-04:00)

Hubble Space Telescope - Visible Passes

Search period start: 18 June 2018 00:00
Search period end: 28 June 2018 00:00
Orbit: 537 x 541 km, 28.5° (Epoch: 17 June)

Date Brightness Start Highest point End Pass type
(mag) Time Alt. Az. Time Alt. Az. Time Alt. Az.
18 Jun 1.3 20:48:10 10° WNW 20:52:15 58° N 20:56:19 10° E visible
18 Jun 1.7 22:29:26 10° WNW 22:32:17 43° W 22:32:17 43° W visible
19 Jun 1.2 20:37:52 10° WNW 20:41:58 61° N 20:46:03 10° E visible
19 Jun 1.4 22:19:08 10° W 22:22:21 49° WSW 22:22:21 49° WSW visible
20 Jun 1.3 22:08:51 10° W 22:12:25 48° SW 22:12:25 48° SW visible
21 Jun 1.4 21:58:37 10° W 22:02:30 39° SSW 22:02:30 39° SSW visible
22 Jun 1.8 21:48:27 10° W 21:52:07 31° SSW 21:52:36 30° S visible
23 Jun 2.2 21:38:21 10° W 21:41:43 24° SSW 21:42:44 22° S visible
24 Jun 2.6 21:28:23 10° WSW 21:31:19 19° SSW 21:32:53 15° S visible
25 Jun 3.0 21:18:39 10° WSW 21:20:54 14° SSW 21:23:05 10° S visible
26 Jun 3.3 21:09:40 10° SW 21:10:29 10° SSW 21:11:19 10° SSW visible
